SCP
0 0 0 0 0 0 0 0 0 0 0 0 0 0 0 0 0 0 0 0 0 0 0 0 0 0 0 0 0 0 0 0 0 0 0 0 0 0 0 0 0 0 0 0 0 0 0 0 0
0 0 0 0 0 0 0 0 0 0 0 0 0 0 0 0 0 0 0 0 0 0 0 0 0 0 0 0 0 0 0 0 0 0 0 0 0 0 0 0 0 0 0 0 0 0 0 0 0
0 0 0 0 0 0 0 0 0 0 0 0 0 0 0 0 0 0 0 0 0 0 0 0 0 0 0 0 0 0 0 0 0 0 0 0 0 0 0 0 0 0 0 0 0 0 0 0 0
0 0 0 0 0 0 0 0 0 0 0 0 0 0 0 0 0 0 0 0 0 0 0 0 0 0 0 0 0 0 0 0 0 0 0 0 0 0 0 0 0 0 0 0 0 0 0 0 0
0 0 0 0 0 0 0 0 0 0 0 0 0 0 0 0 0 0 0 0 0 0 0 0 0 0 0 0 0 0 0 0 0 0 0 0 0 0 0 0 0 0 0 0 0 0 0 0 0
0 0 0 0 0 0 0 0 0 0 0 0 0 0 0 0 0 0 0 0 0 0 0 0 0 0 0 0 0 0 0 0 0 0 0 0 0 0 0 0 0 0 0 0 0 0 0 0 0
0 0 0 0 0 0 0 0 0 0 0 0 0 0 0 0 0 0 0 0 0 0 0 0 0 0 0 0 0 0 0 0 0 0 0 0 0 0 0 0 0 0 0 0 0 0 0 0 0
0 0 0 0 0 0 0 0 0 0 0 0 0 0 0 0 0 0 0 0 0 0 0 0 0 0 0 0 0 0 0 0 0 0 0 0 0 0 0 0 0 0 0 0 0 0 0 0 0
0 0 0 0 0 0 0 0 0 0 0 0 0 0 0 0 0 0 0 0 0 0 0 0 0 0 0 0 0 0 0 0 0 0 0 0 0 0 0 0 0 0 0 0 0 0 0 0 0
0 0 0 0 0 0 0 0 0 0 0 0 0 0 0 0 0 0 0 0 0 0 0 0 0 0 0 0 0 0 0 0 0 0 0 0 0 0 0 0 0 0 0 0 0 0 0 0 0
0 0 0 0 0 0 0 0 0 0 0 0 0 0 0 0 0 0 0 0 0 0 0 0 0 0 0 0 0 0 0 0 0 0 0 0 0 0 0 0 0 0 0 0 0 0 0 0 0
0 0 0 0 0 0 0 0 0 0 0 0 0 0 0 0 0 0 0 0 0 0 0 0 0 0 0 0 0 0 0 0 0 0 0 0 0 0 0 0 0 0 0 0 0 0 0 0 0
0 0 0 0 0 0 0 0 0 0 0 0 0 0 0 0 0 0 0 0 0 0 0 0 0 0 0 0 0 0 0 0 0 0 0 0 0 0 0 0 0 0 0 0 0 0 0 0 0
0 0 0 0 0 0 0 0 0 0 0 0 0 0 0 0 0 0 0 0 0 0 0 0 0 0 0 0 0 0 0 0 0 0 0 0 0 0 0 0 0 0 0 0 0 0 0 0 0
0 0 0 0 0 0 0 0 0 0 0 0 0 0 0 0 0 0 0 0 0 0 0 0 0 0 0 0 0 0 0 0 0 0 0 0 0 0 0 0 0 0 0 0 0 0 0 0 0
0 0 0 0 0 0 0 0 0 0 0 0 0 0 0 0 0 0 0 0 0 0 0 0 0 0 0 0 0 0 0 0 0 0 0 0 0 0 0 0 0 0 0 0 0 0 0 0 0
0 0 0 0 0 0 0 0 0 0 0 0 0 0 0 0 0 0 0 0 0 0 0 0 0 0 0 0 0 0 0 0 0 0 0 0 0 0 0 0 0 0 0 0 0 0 0 0 0
0 0 0 0 0 0 0 0 0 0 0 0 0 0 0 0 0 0 0 0 0 0 0 0 0 0 0 0 0 0 0 0 0 0 0 0 0 0 0 0 0 0 0 0 0 0 0 0 0
0 0 0 0 0 0 0 0 0 0 0 0 0 0 0 0 0 0 0 0 0 0 0 0 0 0 0 0 0 0 0 0 0 0 0 0 0 0 0 0 0 0 0 0 0 0 0 0 0
0 0 0 0 0 0 0 0 0 0 0 0 0 0 0 0 0 0 0 0 0 0 0 0 0 0 0 0 0 0 0 0 0 0 0 0 0 0 0 0 0 0 0 0 0 0 0 0 0
0 0 0 0 0 0 0 0 0 0 0 0 0 0 0 0 0 0 0 0 0 0 0 0 0 0 0 0 0 0 0 0 0 0 0 0 0 0 0 0 0 0 0 0 0 0 0 0 0
0 0 0 0 0 0 0 0 0 0 0 0 0 0 0 0 0 0 0 0 0 0 0 0 0 0 0 0 0 0 0 0 0 0 0 0 0 0 0 0 0 0 0 0 0 0 0 0 0
0 0 0 0 0 0 0 0 0 0 0 0 0 0 0 0 0 0 0 0 0 0 0 0 0 0 0 0 0 0 0 0 0 0 0 0 0 0 0 0 0 0 0 0 0 0 0 0 0
0 0 0 0 0 0 0 0 0 0 0 0 0 0 0 0 0 0 0 0 0 0 0 0 0 0 0 0 0 0 0 0 0 0 0 0 0 0 0 0 0 0 0 0 0 0 0 0 0
0 0 0 0 0 0 0 0 0 0 0 0 0 0 0 0 0 0 0 0 0 0 0 0 0 0 0 0 0 0 0 0 0 0 0 0 0 0 0 0 0 0 0 0 0 0 0 0 0
0 0 0 0 0 0 0 0 0 0 0 0 0 0 0 0 0 0 0 0 0 0 0 0 0 0 0 0 0 0 0 0 0 0 0 0 0 0 0 0 0 0 0 0 0 0 0 0 0
0 0 0 0 0 0 0 0 0 0 0 0 0 0 0 0 0 0 0 0 0 0 0 0 0 0 0 0 0 0 0 0 0 0 0 0 0 0 0 0 0 0 0 0 0 0 0 0 0
0 0 0 0 0 0 0 0 0 0 0 0 0 0 0 0 0 0 0 0 0 0 0 0 0 0 0 0 0 0 0 0 0 0 0 0 0 0 0 0 0 0 0 0 0 0 0 0 0
0 0 0 0 0 0 0 0 0 0 0 0 0 0 0 0 0 0 0 0 0 0 0 0 0 0 0 0 0 0 0 0 0 0 0 0 0 0 0 0 0 0 0 0 0 0 0 0 0
0 0 0 0 0 0 0 0 0 0 0 0 0 0 0 0 0 0 0 0 0 0 0 0 0 0 0 0 0 0 0 0 0 0 0 0 0 0 0 0 0 0 0 0 0 0 0 0 0
Wind_Speed
6 4 2 4 6 5 2 3 3 4 2 1 4 8 7 4 3 2 2 10 10 12 11 15 17 16 14 13 13 12 11 10 10 10 10 11 11 10 11 11 11 11 11 11 11 12 12 11 11
2 3 4 5 6 1 4 3 4 5 5 3 4 6 5 2 1 5 5 9 14 14 11 11 18 16 15 14 13 12 11 10 10 10 10 10 10 9 10 10 10 10 10 10 11 11 11 10 10
2 2 4 5 3 4 3 3 5 4 4 4 3 4 5 3 2 5 6 13 13 12 10 13 19 17 16 15 14 13 11 10 10 10 9 9 9 9 9 9 9 9 9 9 9 9 10 10 9
3 4 5 4 3 5 5 5 5 3 1 2 4 4 2 1 3 4 8 14 14 11 10 12 20 18 16 15 14 13 12 11 10 9 8 8 8 8 8 8 8 8 8 8 8 8 8 8 8
4 4 4 1 4 4 4 6 6 5 2 1 4 4 1 5 1 7 11 13 14 11 9 11 19 18 17 16 15 13 12 11 10 9 8 8 8 7 7 6 6 6 6 6 6 6 6 6 6
4 5 4 2 4 3 3 3 4 4 2 1 4 4 1 2 3 7 9 10 12 13 10 10 19 18 17 16 15 14 12 11 10 9 8 8 7 7 6 5 5 4 4 4 4 4 4 4 4
4 4 2 3 3 2 3 2 5 5 3 1 4 5 1 2 4 6 7 8 9 10 10 8 9 12 16 16 15 14 13 11 10 9 8 7 6 6 5 5 4 3 2 2 1 1 2 2 3
5 4 1 2 2 1 1 1 3 5 3 1 5 8 6 6 5 6 7 7 8 8 9 8 7 7 7 9 13 14 13 11 11 9 8 7 6 5 5 5 5 4 3 2 2 2 2 3 4
4 5 1 2 1 1 3 2 3 1 4 3 3 3 4 6 7 7 5 5 6 8 8 8 8 7 7 7 9 11 12 11 10 8 9 7 3 2 2 4 7 6 5 5 4 5 5 5 5
4 3 4 2 1 2 1 1 2 2 3 2 2 2 3 6 7 8 7 9 9 10 10 8 9 8 7 6 5 5 5 5 5 4 5 4 3 3 4 6 9 9 8 7 7 7 7 5 2
3 4 4 2 1 3 2 1 1 2 2 4 5 5 5 4 5 7 7 8 10 11 11 10 10 9 8 5 4 3 3 3 4 5 5 4 3 2 2 2 3 4 5 3 4 5 3 3 3
2 4 3 3 2 3 3 1 1 3 5 5 6 8 7 7 7 8 8 8 7 9 12 11 10 9 8 6 5 4 3 3 3 4 5 4 2 2 2 2 2 2 2 3 3 3 4 5 5
2 4 4 2 3 3 3 3 3 5 5 3 5 6 7 7 6 6 6 6 7 10 11 11 11 10 8 6 5 5 5 4 5 4 4 5 4 4 3 3 3 3 3 3 4 4 5 5 5
2 2 4 5 4 3 4 3 2 8 4 4 6 6 6 5 5 4 4 5 7 9 10 10 11 10 9 7 6 5 5 4 4 4 5 6 4 4 4 3 3 3 3 4 4 5 4 4 4
1 3 7 6 5 4 3 5 7 8 5 6 6 5 4 3 2 2 3 5 7 8 9 9 10 9 9 8 7 5 4 4 4 4 5 5 5 4 4 3 3 3 3 3 3 3 3 3 3
2 2 4 7 2 3 7 8 9 5 8 7 6 5 4 2 1 0 1 2 5 7 8 8 8 8 8 7 5 4 3 3 3 3 3 4 5 4 4 3 3 2 2 1 2 2 2 3 3
2 2 4 7 2 3 5 8 7 3 7 8 7 6 5 3 1 2 2 2 5 7 8 7 7 8 7 6 4 4 3 3 2 2 1 2 2 3 2 2 2 1 1 1 1 1 2 3 4
4 3 3 4 3 4 6 9 8 5 7 8 7 6 6 5 3 2 3 3 5 6 7 7 7 6 6 5 4 3 3 2 2 1 1 1 1 1 2 1 1 0 0 1 1 2 2 2 3
3 3 5 7 5 5 8 11 11 8 6 8 8 8 7 6 3 3 4 5 6 6 7 7 7 6 5 4 3 3 2 1 1 1 1 1 1 1 1 0 0 0 0 1 2 1 2 2 1
5 5 5 6 3 3 6 11 12 9 10 11 13 11 10 7 4 4 4 4 5 5 6 6 6 6 5 4 3 3 3 2 1 1 1 1 1 1 1 1 0 0 1 2 2 1 2 2 1
5 5 5 5 4 4 4 9 7 6 5 6 8 10 10 11 10 7 5 4 5 5 6 6 6 6 6 5 4 4 3 3 2 1 1 2 1 0 1 1 1 0 0 1 2 2 2 3 2
5 5 5 3 1 4 1 6 9 4 3 5 8 9 10 9 8 7 7 5 5 4 5 6 6 6 5 5 5 5 3 2 1 1 0 2 2 1 0 1 1 0 0 2 2 2 2 2 3
7 3 1 1 1 3 2 4 11 2 5 8 9 10 10 10 10 9 8 7 5 5 5 5 6 5 5 5 6 6 4 2 1 1 1 2 2 2 1 0 0 1 1 2 3 3 2 2 3
4 3 5 5 4 4 6 6 10 6 8 7 9 11 11 10 9 8 7 6 5 4 5 5 6 5 5 6 6 6 6 4 3 2 1 1 1 2 2 1 1 2 2 3 3 3 4 4 4
4 5 3 3 1 8 4 5 12 8 7 9 14 14 12 11 11 10 10 8 7 7 6 6 6 5 5 5 5 5 5 5 4 2 1 0 1 1 2 2 2 2 3 4 4 3 4 4 5
6 9 7 5 5 6 2 8 10 5 5 5 8 11 11 11 11 12 12 10 9 8 7 7 7 5 5 5 5 4 4 3 2 2 2 1 1 2 2 3 3 4 4 4 4 3 4 4 5
6 6 7 5 2 4 7 8 9 2 3 2 7 10 13 13 12 12 11 10 10 9 8 8 8 6 6 5 5 4 4 3 3 2 1 1 2 2 3 3 4 4 5 5 4 4 5 5 5
6 6 5 5 5 5 6 6 5 5 4 3 7 11 12 11 11 11 11 11 10 9 8 7 7 7 6 6 5 4 3 3 3 1 1 2 2 2 3 4 5 5 5 5 5 5 5 6 6
5 4 5 4 5 5 4 8 6 5 5 7 10 12 13 14 14 13 12 11 9 8 8 8 7 6 5 5 4 4 3 2 2 1 2 2 2 3 4 5 5 6 6 6 5 6 7 7 7
7 8 8 6 5 5 3 9 5 3 4 6 8 9 10 12 12 11 10 10 9 9 8 8 7 7 6 5 5 4 3 2 1 2 2 3 3 4 4 5 6 6 7 7 7 8 8 8 8
Wind_Direction
330 354 55 53 53 46 295 266 177 156 141 182 110 107 118 129 148 174 186 145 147 152 166 165 162 159 154 147 140 135 130 123 117 112 107 103 98 93 89 85 80 77 74 71 69 67 66 65 65
0 17 56 60 82 61 282 251 154 156 167 153 105 108 110 134 178 145 139 158 152 155 161 161 163 161 157 151 147 142 136 131 126 119 115 109 103 98 93 89 85 80 77 75 72 69 67 65 63
357 53 81 76 117 185 215 215 179 181 168 136 102 97 133 162 188 184 178 151 148 155 158 165 165 163 160 156 152 147 143 138 133 128 122 115 108 103 97 93 89 85 80 77 74 71 68 65 63
51 50 58 81 228 228 203 205 179 138 96 112 108 84 79 345 210 195 146 146 148 154 158 169 166 165 163 159 156 154 149 146 140 135 130 123 116 110 105 100 95 91 85 80 76 72 69 64 61
62 74 67 24 254 251 216 197 160 126 152 182 112 113 53 333 43 129 142 150 153 156 161 171 168 168 165 163 161 159 155 153 150 147 142 135 128 122 118 113 105 98 91 84 79 72 68 64 57
56 67 90 247 260 260 246 216 125 100 88 10 108 116 191 318 125 142 149 155 156 159 162 169 171 170 168 167 166 164 163 161 159 157 154 148 142 139 137 131 122 112 100 88 79 70 61 53 46
101 97 168 234 264 249 215 191 123 117 102 166 126 123 226 247 192 156 145 148 152 159 160 167 170 170 172 172 171 170 170 170 168 168 167 164 161 162 162 159 157 154 142 121 81 46 26 12 6
124 100 348 287 251 250 271 140 137 132 154 126 111 146 202 214 182 135 122 137 148 159 164 165 164 163 166 171 175 173 174 177 177 178 175 176 182 191 192 187 194 201 207 214 239 278 299 309 313
91 79 265 279 331 314 337 53 353 99 97 52 55 168 209 145 132 122 114 130 153 166 171 167 164 164 163 169 179 175 179 183 184 183 180 178 183 205 228 214 216 224 231 241 255 269 282 291 296
91 133 230 245 205 183 13 54 348 54 61 66 48 34 90 122 144 156 161 166 172 177 180 175 171 168 167 176 173 172 175 180 177 170 176 169 177 205 224 236 233 236 242 253 265 273 282 294 299
161 197 232 270 216 169 163 305 337 136 215 201 184 174 156 155 168 183 188 181 184 179 180 181 178 173 171 173 166 169 166 169 177 178 179 179 183 209 229 236 249 252 256 267 284 299 299 283 265
233 244 226 232 217 178 180 200 304 200 219 204 181 167 167 175 188 198 201 200 185 177 185 182 179 177 177 173 172 173 173 177 184 191 190 183 185 199 205 210 222 229 236 243 253 260 267 269 267
251 275 302 279 233 210 193 217 237 244 226 180 148 150 174 189 206 219 215 206 185 181 183 181 180 179 177 173 177 179 183 186 191 196 198 191 190 198 202 209 216 225 226 230 240 247 255 259 265
238 267 294 280 251 232 214 249 231 253 208 171 157 164 176 183 202 213 212 206 192 184 178 175 178 178 172 173 175 179 184 186 189 197 202 196 195 198 200 212 220 226 224 226 230 236 243 249 255
268 316 313 282 237 228 175 271 242 237 170 174 176 173 166 171 168 203 213 200 189 179 169 167 172 170 169 171 173 172 178 179 189 201 204 200 198 202 204 214 227 233 228 229 235 247 246 257 262
10 6 299 291 214 178 148 252 264 227 172 187 191 182 166 154 135 190 212 167 168 160 157 160 161 158 161 161 161 159 163 170 185 195 198 201 203 202 203 214 231 239 239 242 254 260 272 274 277
1 250 259 296 213 169 181 241 263 203 177 191 194 188 172 153 104 49 51 116 143 148 147 142 142 149 151 146 139 130 130 134 145 150 160 182 193 196 193 210 229 233 241 276 282 276 261 281 286
229 233 254 275 263 182 216 248 262 242 205 200 195 188 179 167 164 104 73 94 111 120 125 126 125 133 129 119 108 97 93 91 91 106 128 136 148 173 173 191 225 220 277 311 312 295 284 269 279
217 243 267 263 253 201 232 254 259 243 221 211 200 189 184 176 163 106 87 94 98 102 113 120 121 127 127 120 120 115 110 92 76 83 99 97 103 124 135 167 296 2 275 276 287 292 300 294 298
228 254 271 284 289 225 256 264 260 238 216 203 194 187 181 168 156 131 108 99 107 118 118 118 122 126 127 126 128 127 124 112 96 29 34 47 110 140 144 156 179 295 306 313 309 299 298 292 311
230 227 242 263 313 318 303 294 279 265 222 197 187 182 178 171 166 156 139 126 122 130 136 131 129 126 123 121 109 89 71 53 36 18 354 339 339 157 150 158 156 175 199 280 288 275 251 280 297
243 233 220 238 297 291 319 295 286 268 242 201 187 180 182 174 163 158 152 148 148 151 139 129 128 124 125 124 126 131 137 150 187 193 321 345 5 14 73 135 140 164 244 277 282 268 239 239 278
216 215 186 188 182 296 265 235 281 270 241 228 203 192 186 177 168 163 161 157 152 149 141 133 126 122 123 121 127 125 125 141 128 85 52 15 2 4 2 53 88 306 288 284 287 290 267 233 242
157 73 41 45 74 280 229 191 273 237 221 218 201 195 186 176 167 158 152 143 141 142 139 138 134 131 131 127 130 135 139 140 126 103 66 7 347 346 348 339 315 296 287 283 281 277 274 261 256
119 99 4 332 349 251 219 200 252 252 233 207 194 190 183 174 166 162 160 161 159 160 158 153 147 144 143 137 139 144 146 146 149 155 160 214 317 307 302 311 297 288 282 283 282 280 278 270 266
179 156 178 214 229 275 257 225 253 269 281 222 184 171 170 174 174 173 173 170 168 169 167 163 160 157 156 148 147 148 146 145 157 169 179 209 235 257 274 291 292 291 293 293 290 283 276 272 268
156 197 180 152 234 268 275 279 299 285 359 112 148 159 177 182 182 180 177 175 173 173 175 172 167 162 163 158 152 153 153 153 164 175 186 233 256 269 287 298 300 299 298 293 292 279 279 279 269
160 164 132 157 191 241 277 271 260 278 256 182 178 183 188 186 186 184 183 181 179 176 172 169 167 167 165 162 162 159 161 166 169 169 240 273 283 289 304 305 302 299 296 293 288 282 276 277 273
166 181 174 170 175 177 251 270 235 244 229 206 204 198 191 191 192 190 187 183 176 168 165 166 167 161 162 163 158 152 163 167 164 201 258 272 280 291 294 294 295 294 293 290 286 281 281 278 277
184 189 164 174 220 191 194 267 275 276 247 211 211 207 201 198 195 189 181 173 172 171 168 168 167 166 169 165 159 164 170 172 198 253 268 271 278 282 282 287 289 289 289 288 285 284 284 280 279